Theta_e
304 304 302 302 303 302 302 300 297 292 293 297 298 302 304 304 306 304 303 312 314 314 311 312 311 309 308 307 307 307 307 308 309 309 309 311 312 312
307 303 302 302 302 302 301 300 298 296 294 297 300 301 304 307 308 306 305 313 314 314 310 311 310 309 307 306 305 305 305 306 306 306 307 308 311 311
303 304 305 303 303 303 303 301 301 298 295 298 300 302 301 303 305 303 305 304 303 312 312 311 310 310 308 306 305 305 305 305 305 305 308 309 309 310
304 304 304 309 304 305 302 302 301 301 298 296 297 299 299 301 305 303 305 307 302 308 312 312 310 308 307 307 306 305 306 306 304 305 305 305 306 306
305 304 306 306 304 304 305 305 304 302 300 296 296 297 297 301 300 299 300 300 304 310 310 308 307 306 307 307 307 307 305 305 304 305 304 304 305 305
308 308 308 307 305 306 306 305 302 299 298 295 295 295 295 297 297 296 295 296 297 302 303 305 306 307 308 307 307 307 305 304 303 303 304 304 304 304
304 307 308 312 316 313 309 304 299 298 296 295 294 293 293 294 293 294 293 293 294 295 295 295 296 296 297 304 305 306 305 304 302 302 302 301 301 302
302 305 309 312 310 311 311 309 306 298 295 293 293 292 293 294 294 293 291 290 288 294 294 293 295 294 296 297 304 304 304 304 303 303 302 301 301 301
305 306 309 311 305 299 302 304 302 305 304 296 294 294 293 294 293 291 291 290 290 294 294 291 293 293 295 299 302 303 304 302 302 302 301 301 300 299
308 308 305 295 296 296 296 295 296 297 298 300 299 297 296 297 296 295 293 293 294 295 298 293 292 293 294 296 301 302 303 302 302 302 301 301 300 299
299 304 298 295 298 298 296 295 295 297 302 302 302 301 300 300 299 294 293 296 290 294 297 293 296 295 293 293 295 303 302 302 302 302 302 301 299 299
296 296 301 295 297 297 293 293 293 293 293 295 297 300 301 301 303 296 298 293 293 295 297 294 294 295 290 293 294 295 295 300 300 300 301 300 300 298
298 296 294 297 296 296 296 293 293 294 296 294 297 300 301 298 297 300 301 299 297 297 300 298 296 295 294 293 295 295 296 295 296 297 299 299 300 299
297 298 296 296 296 296 295 297 296 297 295 295 296 296 298 299 299 301 302 303 303 302 303 301 297 296 295 294 294 294 293 296 298 297 295 297 299 299
298 298 297 296 295 296 297 296 296 296 296 296 294 296 297 298 298 299 301 301 303 304 305 303 302 302 300 297 296 297 296 298 300 298 294 294 294 294
295 293 298 297 297 299 297 298 297 296 299 297 294 296 297 296 295 295 295 297 296 297 302 303 303 302 299 300 300 298 300 297 298 299 297 293 295 295
292 293 295 295 295 293 294 295 295 295 293 292 292 293 295 296 297 299 296 295 292 292 293 296 298 300 299 298 296 297 296 296 299 300 297 292 295 299
291 291 293 294 293 292 291 292 293 295 294 293 294 296 297 297 298 298 297 293 292 292 291 293 293 294 294 296 304 298 296 295 298 299 297 295 292 297
291 291 293 293 292 292 292 292 291 292 294 296 297 296 296 296 293 294 295 294 294 292 294 295 294 292 289 289 297 302 298 297 297 297 296 296 294 294
292 292 292 293 293 293 292 292 292 292 293 295 295 296 296 296 293 293 294 294 292 293 293 294 295 293 289 287 289 296 298 299 296 294 293 296 295 297
292 291 291 291 293 293 293 292 292 292 291 294 295 293 293 291 291 292 292 291 290 292 292 292 296 291 295 296 295 295 296 297 298 293 295 292 290 290
292 291 292 291 291 291 290 290 290 291 291 291 290 290 289 289 289 289 290 289 290 291 293 296 296 294 294 293 291 293 295 298 298 299 297 295 292 286
292 291 290 290 290 290 290 290 290 289 288 287 287 287 287 288 289 289 289 290 290 290 293 293 294 294 292 292 291 294 291 291 292 292 292 297 297 297
Wind_Speed
4 1 1 2 3 3 2 2 4 2 4 4 2 4 3 4 6 2 4 8 7 2 6 6 8 7 6 9 12 14 16 17 15 17 18 19 20 17
3 2 2 2 2 2 2 2 1 4 3 3 4 5 6 6 8 6 5 7 8 9 9 9 9 10 10 8 10 13 14 15 16 17 19 20 21 18
2 2 5 4 3 2 2 2 3 1 3 5 3 5 5 8 8 3 4 3 3 4 8 11 12 11 9 9 10 12 13 15 15 16 14 13 13 13
3 3 5 2 2 4 1 3 3 3 3 5 3 4 4 5 1 3 4 3 4 7 10 10 6 8 9 11 10 12 13 13 14 14 14 12 14 14
4 5 6 4 4 4 5 4 3 2 3 2 4 2 3 2 4 3 3 4 4 11 7 3 5 6 9 10 11 12 11 10 12 13 13 13 12 13
4 4 6 5 6 6 6 6 4 3 3 3 3 3 1 3 1 1 4 2 4 4 5 5 8 9 10 14 13 12 10 10 8 8 10 11 9 12
6 6 6 7 14 8 3 4 3 2 3 3 4 2 2 3 1 2 2 3 4 2 2 3 3 4 6 9 10 11 11 10 9 9 10 10 10 10
6 7 7 7 3 4 4 6 4 3 4 3 2 2 3 3 2 2 2 2 3 2 3 4 2 4 5 4 9 10 11 11 10 11 10 10 10 11
7 7 8 2 6 5 6 7 7 10 8 3 2 3 3 3 2 2 2 2 4 4 2 4 2 4 4 4 10 12 13 9 9 9 9 10 11 10
7 7 5 6 3 4 5 6 6 7 5 5 4 4 3 4 3 3 3 4 4 4 3 4 3 5 4 6 11 13 11 7 7 9 10 11 11 12
4 7 7 6 3 3 4 5 7 6 7 10 10 9 8 8 7 1 4 3 4 3 1 2 3 4 4 4 5 6 10 11 10 11 12 12 12 13
1 4 7 7 7 4 3 2 5 6 6 7 7 6 7 6 9 6 4 4 4 4 3 3 2 2 4 3 2 4 4 8 10 11 12 13 14 5
2 4 3 6 6 4 3 1 4 4 7 5 5 4 5 5 4 4 5 5 5 5 7 3 3 2 3 4 3 4 5 5 5 6 10 11 11 7
3 3 3 8 7 5 1 7 9 6 3 4 4 4 4 4 5 5 6 5 7 9 11 6 4 4 3 3 5 3 4 6 5 7 4 6 10 9
3 5 5 11 8 2 5 8 6 4 4 2 4 4 5 5 6 5 6 7 6 6 8 5 8 8 6 6 5 6 4 4 4 5 4 4 4 3
6 5 7 5 3 3 3 4 2 1 1 3 3 5 5 4 4 3 4 5 4 5 6 7 7 6 4 7 7 8 7 4 3 4 4 3 4 4
5 1 2 1 1 1 2 2 2 3 3 4 3 4 4 3 6 6 4 4 2 4 5 5 7 5 5 5 3 5 6 4 5 4 3 3 4 5
3 3 3 3 3 2 2 2 2 3 2 3 4 3 5 6 6 7 5 4 4 4 4 4 3 3 3 4 9 6 4 3 2 2 2 2 3 3
2 4 3 3 3 3 3 1 2 3 3 4 4 5 5 5 5 6 6 5 5 4 6 6 2 2 3 5 4 6 4 3 2 2 2 3 3 4
2 2 2 3 3 4 3 3 3 4 3 4 4 5 4 4 5 6 7 7 6 6 6 5 1 2 2 4 3 5 8 4 1 2 2 1 3 6
2 2 3 3 3 2 2 2 4 4 4 4 4 4 5 4 6 7 7 9 9 6 6 3 2 6 4 3 4 4 5 2 3 2 1 1 2 3
3 3 4 4 4 4 4 2 4 4 4 4 4 4 5 5 6 7 7 8 7 7 7 3 1 3 2 2 5 6 4 1 1 1 1 3 1 2
3 3 4 4 3 3 4 5 5 4 4 4 6 6 6 7 6 7 8 8 8 9 8 6 1 1 1 3 4 4 2 3 2 2 2 7 7 6
Wind_Direction
237 309 3 327 17 22 33 109 139 317 300 310 344 271 263 276 264 233 206 220 240 191 191 183 219 238 263 286 302 309 306 297 293 291 290 279 276 274
172 219 276 271 319 349 335 327 168 173 249 225 276 274 287 283 265 248 222 245 255 275 209 210 214 229 247 268 294 305 302 303 297 292 284 280 272 269
279 244 264 257 265 299 315 336 314 235 237 294 252 279 292 283 282 307 275 260 282 259 219 214 222 231 239 258 287 285 288 289 295 293 289 293 294 283
283 282 285 290 228 247 243 276 270 277 201 281 271 296 301 329 358 9 352 343 305 274 285 279 279 237 238 255 279 276 278 284 285 283 286 292 293 292
277 284 278 285 267 274 283 275 264 284 271 270 284 276 265 5 16 351 354 332 309 316 307 329 296 252 266 276 273 276 281 271 268 268 262 268 270 276
279 284 288 281 255 267 260 258 265 266 295 279 277 284 285 311 29 299 324 313 297 314 333 333 303 282 275 283 286 283 270 261 263 264 261 267 262 271
299 298 285 276 311 251 223 261 269 286 286 285 283 293 302 341 321 275 297 297 293 263 313 295 301 297 287 289 278 282 276 255 247 260 266 271 271 275
283 283 272 286 6 38 8 354 274 254 268 248 255 226 262 246 260 267 274 337 322 283 344 289 291 292 290 293 282 275 281 265 243 250 256 259 272 282
265 260 273 99 62 45 4 352 329 331 321 219 248 250 256 242 210 275 284 258 251 273 3 296 291 292 284 296 304 296 295 257 264 259 254 257 269 276
294 278 115 93 73 46 3 340 332 326 1 354 305 281 258 270 226 207 242 275 290 285 212 288 291 294 297 299 293 291 285 257 267 272 259 268 271 269
22 94 116 133 154 78 44 351 333 323 332 335 326 307 293 283 236 104 292 288 295 261 280 228 262 290 275 293 309 351 328 289 295 282 265 262 274 273
111 115 160 161 154 103 66 339 326 303 323 325 328 323 311 297 285 195 235 245 257 296 240 198 256 318 313 262 278 299 276 273 281 281 263 265 265 261
169 211 213 166 159 159 162 239 253 283 309 310 306 317 326 326 311 287 242 229 254 257 257 187 219 223 211 289 264 243 240 259 257 267 265 266 277 234
307 215 241 203 222 205 226 260 285 314 314 341 338 316 307 301 297 294 276 257 229 236 269 197 234 210 218 251 264 279 268 264 248 260 255 257 259 251
331 316 234 218 216 304 271 275 304 321 350 360 320 308 287 279 293 301 300 281 280 259 266 229 218 240 221 250 254 276 279 264 236 243 249 235 231 227
353 313 288 178 200 318 357 346 327 325 31 291 282 292 284 303 297 288 295 302 300 296 291 271 248 201 223 237 237 268 260 253 247 235 228 242 243 234
311 291 313 180 93 10 345 341 353 351 17 324 304 301 299 307 313 309 291 300 269 292 294 301 308 271 241 237 248 249 269 253 248 238 182 250 254 242
3 311 315 185 161 193 67 354 317 351 302 298 291 293 310 312 311 309 301 288 290 291 294 277 301 341 334 303 241 271 269 247 255 230 206 229 270 265
261 302 307 191 183 167 154 196 294 290 257 281 295 298 296 296 312 310 307 297 308 294 292 295 328 32 329 316 263 267 268 261 260 294 241 210 236 265
265 265 287 227 202 196 189 202 243 277 280 283 283 288 294 302 314 313 311 306 300 299 294 307 70 52 261 257 265 285 246 239 184 266 318 320 269 287
284 40 10 352 263 271 269 219 231 260 272 296 314 323 320 324 317 310 305 304 302 301 292 294 211 220 268 305 327 319 297 11 115 148 301 345 319 324
39 23 4 6 44 37 11 331 314 349 4 7 334 318 310 304 296 295 303 305 299 304 291 263 246 15 338 316 306 293 304 3 208 146 181 184 197 297
24 20 7 32 32 7 360 16 35 8 351 327 326 316 305 302 296 300 299 300 302 302 295 294 151 3 296 281 294 288 335 330 314 307 303 238 239 253